User: anonymous   Login
Location: Bakov nad Jizerou
(50.4784°N, 14.9394°E)
Time: 19:17:31
(UTC+00:00)
Language:

FALCON 9 DEB - Orbit

View from above orbital plane
View from above orbital plane
View from above satellite
View from above satellite

Ground track
Ground track

The orbit data is extracted from the following two-line orbital elements,

1 44295U 19029BN  21271.01694379  .00008992  00000-0  18284-3 0  9991
2 44295  53.0009  50.1799 0009410 123.8459 236.3444 15.47082180133784
Epoch (UTC): 28 September 2021 00:24:23
Eccentricity: 0.0009410
inclination: 53.0009°
perigee height: 419 km
apogee height: 431 km
right ascension of ascending node: 50.1799°
argument of perigee: 123.8459°
revolutions per day: 15.47082180
mean anomaly at epoch: 236.3444°
orbit number at epoch: 13378

The dashed part of the orbit path shows where the satellite is in the earth's shadow,  

DLR